Flag for Germany Weather past 2 weeks in Willich, North Rhine-Westphalia, Germany

Now
55 °F

Partly sunny.


Feels Like: 55 °F
Forecast: 44 / 52 °F
Wind: 5 mph from Southwest

Location: Monchengladbach Airport

Current Time: Apr 26, 2015 at 8:44:46 AM

Latest Report: Apr 26, 2015 at 8:20 AM


Visibility: N/A

Pressure: 29.74 "Hg

Humidity: 100%

Dew point: 55 °F

Location of WillichLocation

Historic Weather in Willich — Graph

°F

Willich temperature yesterday

Maximum temperature yesterday: 61 °F (at 7:20 PM)
Minimum temperature yesterday: 52 °F (at 7:50 AM)
Average temperature yesterday: 57 °F

Past Weeks' High & Low Weather Summary

 TemperatureHumidityPressure
High75 °F (Apr 15, 3:20 PM)100% (Apr 12, 7:50 AM)30.48 "Hg (Apr 12, 7:50 AM)
Low37 °F (Apr 12, 7:50 AM)26% (Apr 21, 5:20 PM)29.74 "Hg (Apr 25, 3:20 PM)
Average57 °F57%30.17 "Hg
* Reported Apr 10 7:50 PM — Apr 25 7:50 PM, Willich, Weather by CustomWeather, © 2015

Note: Actual official high and low records may vary slightly from our data, if they occured in-between our weather recording intervals... More about our weather records

Advertising

Willich weather history for previous 24 hours

 ConditionsComfort  
Time TempWeatherWind HumidityBarometerVisibility
7:50 PM
Sat, Apr 25
61 °FPassing clouds.6 mph72%29.74 "HgN/A
7:20 PM61 °FPassing clouds.5 mph72%29.74 "HgN/A
6:20 PM59 °FPartly cloudy.8 mph72%29.74 "HgN/A
5:50 PM59 °FPartly cloudy.5 mph88%29.74 "HgN/A
5:20 PM59 °FLight rain. Partly cloudy.7 mph77%29.74 "HgN/A
4:50 PM59 °FPartly cloudy.7 mph77%29.74 "HgN/A
4:20 PM59 °FPassing clouds.7 mph77%29.74 "HgN/A
3:50 PM57 °FPartly cloudy.9 mph82%29.77 "HgN/A
3:20 PM59 °FScattered showers. Passing clouds.7 mph82%29.74 "Hg5 mi
2:50 PM57 °FPartly cloudy.5 mph94%29.77 "Hg5 mi
2:20 PM59 °FSprinkles. Partly cloudy.5 mph77%29.77 "Hg5 mi
1:50 PM59 °FPartly cloudy.6 mph77%29.77 "HgN/A
1:20 PM59 °FPartly cloudy.7 mph77%29.77 "Hg4 mi
12:50 PM57 °FLight rain. Scattered clouds.6 mph88%29.77 "Hg4 mi
12:20 PM57 °FPartly sunny.6 mph82%29.77 "Hg5 mi
11:50 AM57 °FPartly sunny.3 mph82%29.77 "Hg5 mi
11:20 AM57 °FPartly sunny.3 mph82%29.77 "Hg5 mi
10:50 AM55 °FPartly sunny.6 mph88%29.80 "Hg5 mi
10:20 AM54 °FPartly sunny.6 mph94%29.80 "Hg4 mi
9:50 AM54 °FPartly sunny.5 mph94%29.80 "Hg4 mi
9:20 AM52 °FLight rain. Partly sunny.3 mph100%29.80 "Hg4 mi
8:50 AM52 °FPartly sunny.5 mph100%29.80 "Hg4 mi
8:20 AM52 °FSprinkles. Broken clouds.5 mph100%29.80 "Hg4 mi
Weather by CustomWeather, © 2015

See weather overviewHow to use our weather pages